QPF
0.00 0.01 0.01 0.01 0.01 0.01 0.01 0.02 0.03 0.03 0.02 0.02 0.02 0.02 0.03 0.02 0.01 0.01 0.01 0.02 0.02 0.01 0.01 0.02 0.02 0.01 0.02 0.03 0.05 0.06 0.08 0.09 0.09 0.10 0.10 0.10 0.08 0.08
0.00 0.00 0.01 0.01 0.01 0.01 0.01 0.01 0.01 0.02 0.03 0.02 0.01 0.02 0.01 0.01 0.02 0.01 0.01 0.01 0.01 0.01 0.01 0.01 0.02 0.02 0.01 0.01 0.02 0.02 0.03 0.04 0.05 0.06 0.07 0.09 0.10 0.10
0.00 0.00 0.01 0.01 0.01 0.02 0.02 0.01 0.01 0.01 0.02 0.02 0.02 0.01 0.01 0.01 0.01 0.01 0.00 0.01 0.01 0.01 0.01 0.01 0.01 0.02 0.02 0.02 0.01 0.01 0.02 0.02 0.03 0.04 0.06 0.07 0.07 0.07
0.00 0.00 0.01 0.01 0.01 0.02 0.02 0.02 0.02 0.02 0.02 0.02 0.02 0.02 0.02 0.02 0.02 0.01 0.00 0.00 0.01 0.02 0.02 0.01 0.01 0.01 0.01 0.02 0.02 0.02 0.02 0.02 0.02 0.03 0.03 0.05 0.06 0.06
0.00 0.01 0.01 0.01 0.02 0.02 0.01 0.01 0.01 0.01 0.02 0.02 0.02 0.02 0.02 0.02 0.02 0.02 0.01 0.01 0.01 0.02 0.02 0.02 0.02 0.02 0.02 0.02 0.02 0.03 0.03 0.03 0.03 0.04 0.04 0.04 0.04 0.05
0.00 0.01 0.01 0.01 0.02 0.02 0.02 0.01 0.01 0.01 0.01 0.01 0.01 0.02 0.02 0.02 0.03 0.02 0.02 0.02 0.01 0.01 0.01 0.02 0.02 0.02 0.02 0.02 0.02 0.02 0.03 0.04 0.05 0.05 0.06 0.06 0.04 0.04
0.00 0.01 0.01 0.00 0.01 0.02 0.01 0.01 0.01 0.01 0.01 0.01 0.01 0.02 0.02 0.02 0.02 0.02 0.02 0.03 0.02 0.02 0.02 0.03 0.03 0.03 0.03 0.03 0.03 0.02 0.02 0.03 0.04 0.05 0.06 0.07 0.07 0.07
0.00 0.00 0.00 0.00 0.00 0.01 0.00 0.00 0.00 0.01 0.01 0.02 0.02 0.02 0.02 0.02 0.02 0.02 0.02 0.03 0.04 0.03 0.03 0.04 0.04 0.04 0.04 0.03 0.03 0.03 0.03 0.04 0.04 0.05 0.06 0.07 0.08 0.09
0.00 0.00 0.00 0.00 0.00 0.01 0.00 0.01 0.01 0.00 0.01 0.01 0.01 0.01 0.01 0.02 0.02 0.02 0.02 0.03 0.04 0.05 0.05 0.04 0.04 0.05 0.05 0.04 0.04 0.04 0.04 0.05 0.06 0.06 0.06 0.06 0.06 0.07
0.00 0.00 0.00 0.00 0.00 0.00 0.00 0.01 0.01 0.01 0.00 0.00 0.01 0.01 0.00 0.01 0.02 0.02 0.02 0.03 0.03 0.04 0.07 0.06 0.05 0.04 0.04 0.05 0.05 0.04 0.04 0.05 0.06 0.07 0.07 0.08 0.08 0.08
0.00 0.00 0.00 0.00 0.00 0.00 0.00 0.01 0.01 0.01 0.00 0.00 0.00 0.00 0.00 0.01 0.02 0.02 0.02 0.03 0.02 0.02 0.05 0.07 0.06 0.06 0.04 0.04 0.04 0.05 0.06 0.06 0.07 0.08 0.08 0.08 0.09 0.11
0.00 0.00 0.00 0.00 0.00 0.00 0.00 0.00 0.00 0.00 0.00 0.00 0.00 0.01 0.00 0.00 0.01 0.02 0.02 0.03 0.04 0.04 0.05 0.07 0.06 0.05 0.04 0.04 0.04 0.04 0.04 0.05 0.07 0.07 0.08 0.10 0.12 0.13
0.00 0.00 0.00 0.00 0.00 0.00 0.00 0.00 0.00 0.00 0.00 0.00 0.00 0.01 0.01 0.01 0.00 0.01 0.01 0.03 0.04 0.05 0.05 0.07 0.06 0.05 0.05 0.03 0.02 0.04 0.05 0.06 0.06 0.06 0.06 0.09 0.12 0.15
0.00 0.00 0.00 0.00 0.00 0.00 0.00 0.00 0.00 0.00 0.00 0.01 0.01 0.02 0.02 0.01 0.01 0.00 0.01 0.01 0.02 0.03 0.05 0.07 0.07 0.06 0.06 0.05 0.04 0.03 0.03 0.05 0.07 0.07 0.07 0.08 0.09 0.11
0.00 0.00 0.00 0.00 0.00 0.00 0.00 0.00 0.00 0.00 0.00 0.00 0.01 0.01 0.02 0.02 0.01 0.00 0.01 0.01 0.01 0.02 0.03 0.04 0.05 0.05 0.06 0.06 0.04 0.04 0.04 0.05 0.05 0.04 0.05 0.06 0.06 0.06
0.00 0.00 0.00 0.00 0.00 0.00 0.00 0.00 0.00 0.00 0.00 0.00 0.00 0.00 0.01 0.01 0.01 0.02 0.02 0.01 0.01 0.01 0.02 0.03 0.03 0.04 0.05 0.05 0.05 0.04 0.04 0.05 0.04 0.05 0.06 0.06 0.07 0.07
0.00 0.00 0.00 0.00 0.00 0.00 0.00 0.00 0.00 0.00 0.00 0.00 0.00 0.00 0.00 0.00 0.01 0.01 0.02 0.02 0.02 0.01 0.01 0.02 0.02 0.03 0.03 0.03 0.04 0.03 0.03 0.04 0.04 0.04 0.05 0.05 0.05 0.07
0.00 0.00 0.00 0.00 0.00 0.00 0.00 0.00 0.00 0.00 0.00 0.00 0.00 0.00 0.00 0.00 0.01 0.01 0.01 0.02 0.02 0.02 0.01 0.01 0.01 0.02 0.02 0.02 0.03 0.03 0.03 0.04 0.04 0.05 0.05 0.04 0.03 0.03
0.00 0.00 0.00 0.00 0.00 0.00 0.00 0.00 0.00 0.00 0.00 0.00 0.00 0.00 0.00 0.00 0.01 0.01 0.01 0.01 0.01 0.02 0.02 0.02 0.02 0.02 0.03 0.02 0.02 0.02 0.02 0.03 0.03 0.04 0.05 0.06 0.05 0.04
0.00 0.00 0.00 0.00 0.00 0.00 0.00 0.00 0.00 0.00 0.00 0.00 0.00 0.00 0.00 0.00 0.00 0.01 0.01 0.01 0.01 0.01 0.01 0.01 0.02 0.03 0.04 0.04 0.03 0.02 0.02 0.02 0.02 0.03 0.03 0.04 0.05 0.05
0.00 0.00 0.00 0.01 0.01 0.01 0.01 0.00 0.00 0.00 0.00 0.00 0.00 0.00 0.00 0.00 0.00 0.00 0.01 0.01 0.01 0.01 0.01 0.01 0.02 0.02 0.03 0.03 0.03 0.01 0.02 0.02 0.02 0.03 0.03 0.03 0.04 0.04
0.00 0.01 0.01 0.00 0.00 0.00 0.00 0.00 0.00 0.00 0.00 0.00 0.00 0.00 0.00 0.00 0.00 0.00 0.00 0.00 0.01 0.01 0.02 0.01 0.02 0.02 0.03 0.03 0.02 0.02 0.01 0.02 0.02 0.02 0.02 0.03 0.03 0.03
0.00 0.00 0.00 0.00 0.00 0.00 0.00 0.00 0.00 0.00 0.00 0.00 0.00 0.00 0.00 0.00 0.00 0.00 0.00 0.00 0.00 0.01 0.01 0.01 0.02 0.02 0.02 0.02 0.02 0.02 0.01 0.01 0.02 0.02 0.02 0.03 0.03 0.02
MSLP
1012.68 1012.67 1012.67 1012.64 1012.57 1012.45 1012.29 1012.08 1011.87 1011.66 1011.47 1011.32 1011.21 1011.15 1011.13 1011.13 1011.16 1011.21 1011.28 1011.38 1011.51 1011.67 1011.87 1012.09 1012.32 1012.54 1012.75 1012.93 1013.09 1013.23 1013.37 1013.53 1013.71 1013.92 1014.17 1014.45 1014.73 1015.02
1012.80 1012.76 1012.72 1012.67 1012.60 1012.50 1012.38 1012.25 1012.10 1011.95 1011.81 1011.69 1011.58 1011.48 1011.39 1011.31 1011.24 1011.18 1011.16 1011.18 1011.25 1011.36 1011.52 1011.71 1011.92 1012.12 1012.31 1012.47 1012.60 1012.72 1012.84 1012.97 1013.13 1013.32 1013.54 1013.79 1014.05 1014.31
1012.88 1012.80 1012.74 1012.68 1012.62 1012.56 1012.49 1012.42 1012.34 1012.27 1012.18 1012.08 1011.97 1011.84 1011.70 1011.54 1011.38 1011.24 1011.12 1011.05 1011.05 1011.10 1011.20 1011.34 1011.50 1011.66 1011.81 1011.94 1012.04 1012.13 1012.23 1012.33 1012.47 1012.64 1012.85 1013.07 1013.31 1013.54
1012.94 1012.84 1012.76 1012.70 1012.65 1012.62 1012.60 1012.59 1012.58 1012.56 1012.52 1012.45 1012.35 1012.21 1012.02 1011.81 1011.58 1011.36 1011.16 1011.01 1010.92 1010.89 1010.91 1010.98 1011.07 1011.16 1011.24 1011.32 1011.38 1011.43 1011.50 1011.59 1011.71 1011.87 1012.06 1012.28 1012.51 1012.74
1013.02 1012.91 1012.81 1012.74 1012.70 1012.69 1012.70 1012.73 1012.76 1012.79 1012.79 1012.75 1012.66 1012.51 1012.31 1012.07 1011.80 1011.52 1011.26 1011.04 1010.86 1010.74 1010.67 1010.64 1010.63 1010.62 1010.62 1010.62 1010.61 1010.62 1010.66 1010.73 1010.85 1011.01 1011.21 1011.43 1011.67 1011.90
1013.10 1012.98 1012.88 1012.80 1012.76 1012.75 1012.77 1012.82 1012.88 1012.93 1012.95 1012.93 1012.86 1012.72 1012.52 1012.27 1011.98 1011.68 1011.38 1011.10 1010.86 1010.65 1010.47 1010.32 1010.19 1010.07 1009.96 1009.86 1009.78 1009.74 1009.74 1009.79 1009.91 1010.08 1010.29 1010.54 1010.80 1011.06
1013.16 1013.04 1012.94 1012.85 1012.81 1012.79 1012.81 1012.85 1012.90 1012.95 1012.98 1012.96 1012.90 1012.78 1012.60 1012.37 1012.09 1011.79 1011.48 1011.17 1010.86 1010.57 1010.29 1010.03 1009.77 1009.52 1009.29 1009.09 1008.93 1008.82 1008.79 1008.83 1008.94 1009.13 1009.36 1009.64 1009.92 1010.22
1013.12 1013.02 1012.93 1012.85 1012.80 1012.77 1012.77 1012.79 1012.82 1012.85 1012.86 1012.84 1012.79 1012.68 1012.53 1012.33 1012.08 1011.80 1011.50 1011.17 1010.83 1010.48 1010.11 1009.74 1009.37 1009.00 1008.66 1008.36 1008.12 1007.96 1007.88 1007.90 1008.01 1008.20 1008.46 1008.75 1009.06 1009.38
1012.94 1012.87 1012.81 1012.75 1012.70 1012.67 1012.65 1012.64 1012.64 1012.63 1012.61 1012.58 1012.52 1012.42 1012.29 1012.12 1011.92 1011.67 1011.39 1011.07 1010.72 1010.32 1009.89 1009.44 1008.98 1008.52 1008.09 1007.71 1007.40 1007.19 1007.08 1007.08 1007.18 1007.37 1007.62 1007.92 1008.24 1008.56
1012.57 1012.55 1012.53 1012.51 1012.49 1012.47 1012.44 1012.41 1012.37 1012.33 1012.28 1012.21 1012.13 1012.03 1011.91 1011.77 1011.60 1011.39 1011.14 1010.84 1010.48 1010.07 1009.62 1009.12 1008.60 1008.09 1007.60 1007.17 1006.82 1006.57 1006.43 1006.40 1006.48 1006.65 1006.88 1007.15 1007.45 1007.74
1012.03 1012.07 1012.11 1012.15 1012.17 1012.18 1012.16 1012.13 1012.07 1011.99 1011.89 1011.79 1011.67 1011.56 1011.43 1011.30 1011.14 1010.96 1010.74 1010.46 1010.12 1009.72 1009.26 1008.76 1008.23 1007.69 1007.19 1006.74 1006.37 1006.10 1005.94 1005.89 1005.93 1006.05 1006.24 1006.46 1006.69 1006.94
1011.39 1011.49 1011.60 1011.70 1011.79 1011.84 1011.86 1011.83 1011.76 1011.66 1011.52 1011.37 1011.22 1011.06 1010.91 1010.76 1010.61 1010.43 1010.23 1009.97 1009.66 1009.28 1008.84 1008.36 1007.84 1007.33 1006.83 1006.40 1006.03 1005.76 1005.58 1005.50 1005.50 1005.56 1005.67 1005.82 1005.97 1006.13
1010.75 1010.90 1011.07 1011.24 1011.40 1011.52 1011.58 1011.57 1011.51 1011.38 1011.22 1011.02 1010.82 1010.61 1010.42 1010.24 1010.06 1009.87 1009.67 1009.42 1009.13 1008.78 1008.37 1007.93 1007.45 1006.98 1006.52 1006.12 1005.77 1005.51 1005.32 1005.20 1005.15 1005.15 1005.17 1005.22 1005.27 1005.34
1010.22 1010.40 1010.62 1010.85 1011.07 1011.25 1011.36 1011.39 1011.33 1011.20 1011.01 1010.78 1010.52 1010.26 1010.02 1009.79 1009.57 1009.36 1009.13 1008.89 1008.60 1008.28 1007.91 1007.50 1007.08 1006.65 1006.24 1005.87 1005.56 1005.30 1005.10 1004.95 1004.85 1004.77 1004.70 1004.65 1004.60 1004.56
1009.90 1010.08 1010.33 1010.60 1010.87 1011.09 1011.24 1011.30 1011.26 1011.13 1010.92 1010.66 1010.36 1010.05 1009.75 1009.47 1009.21 1008.95 1008.70 1008.44 1008.16 1007.84 1007.50 1007.13 1006.74 1006.36 1005.99 1005.66 1005.36 1005.11 1004.89 1004.71 1004.55 1004.40 1004.25 1004.10 1003.96 1003.82
1009.84 1010.01 1010.25 1010.53 1010.82 1011.07 1011.25 1011.33 1011.31 1011.18 1010.96 1010.67 1010.35 1010.00 1009.65 1009.33 1009.02 1008.72 1008.44 1008.16 1007.86 1007.54 1007.21 1006.85 1006.49 1006.13 1005.78 1005.46 1005.17 1004.91 1004.67 1004.45 1004.24 1004.03 1003.81 1003.58 1003.36 1003.14
1010.04 1010.17 1010.38 1010.65 1010.93 1011.19 1011.37 1011.46 1011.44 1011.32 1011.10 1010.81 1010.46 1010.09 1009.72 1009.36 1009.01 1008.69 1008.37 1008.06 1007.75 1007.41 1007.07 1006.71 1006.34 1005.98 1005.62 1005.29 1004.98 1004.70 1004.43 1004.17 1003.92 1003.66 1003.38 1003.10 1002.82 1002.54
1010.44 1010.52 1010.70 1010.92 1011.17 1011.40 1011.57 1011.66 1011.64 1011.52 1011.31 1011.02 1010.68 1010.30 1009.92 1009.54 1009.18 1008.83 1008.49 1008.16 1007.81 1007.46 1007.08 1006.70 1006.30 1005.90 1005.52 1005.15 1004.80 1004.48 1004.17 1003.87 1003.57 1003.27 1002.97 1002.65 1002.33 1002.02
1010.96 1010.99 1011.11 1011.29 1011.49 1011.68 1011.82 1011.89 1011.86 1011.74 1011.54 1011.26 1010.93 1010.57 1010.20 1009.82 1009.45 1009.10 1008.74 1008.38 1008.01 1007.62 1007.21 1006.78 1006.34 1005.89 1005.45 1005.03 1004.62 1004.24 1003.88 1003.54 1003.21 1002.88 1002.55 1002.21 1001.88 1001.55
1011.48 1011.47 1011.54 1011.66 1011.81 1011.95 1012.06 1012.10 1012.06 1011.95 1011.75 1011.49 1011.18 1010.84 1010.48 1010.12 1009.76 1009.40 1009.03 1008.66 1008.26 1007.83 1007.38 1006.90 1006.40 1005.89 1005.38 1004.89 1004.42 1003.98 1003.56 1003.18 1002.81 1002.46 1002.12 1001.78 1001.43 1001.10
1011.93 1011.90 1011.93 1012.00 1012.10 1012.19 1012.26 1012.27 1012.22 1012.10 1011.91 1011.66 1011.37 1011.05 1010.71 1010.36 1010.01 1009.65 1009.27 1008.88 1008.46 1008.01 1007.51 1006.98 1006.42 1005.85 1005.28 1004.71 1004.17 1003.67 1003.20 1002.77 1002.37 1002.00 1001.65 1001.30 1000.96 1000.63
1012.27 1012.22 1012.22 1012.26 1012.31 1012.37 1012.39 1012.38 1012.31 1012.18 1011.99 1011.75 1011.47 1011.16 1010.83 1010.49 1010.14 1009.77 1009.39 1008.99 1008.55 1008.06 1007.53 1006.96 1006.36 1005.73 1005.10 1004.47 1003.87 1003.31 1002.79 1002.32 1001.88 1001.49 1001.13 1000.78 1000.44 1000.11
1012.47 1012.42 1012.41 1012.42 1012.44 1012.46 1012.46 1012.43 1012.34 1012.20 1012.01 1011.76 1011.48 1011.16 1010.83 1010.48 1010.12 1009.74 1009.35 1008.93 1008.47 1007.96 1007.41 1006.82 1006.18 1005.52 1004.84 1004.17 1003.53 1002.91 1002.35 1001.83 1001.37 1000.95 1000.57 1000.21 999.87 999.54
Thickness
5670 5671 5672 5674 5675 5678 5680 5682 5682 5685 5691 5697 5700 5704 5706 5708 5710 5715 5718 5720 5721 5723 5725 5727 5729 5731 5732 5733 5734 5735 5735 5736 5736 5736 5735 5735 5734 5734
5665 5667 5668 5670 5672 5674 5676 5678 5679 5680 5683 5691 5693 5696 5698 5702 5704 5707 5711 5713 5715 5718 5720 5722 5723 5725 5727 5729 5730 5731 5732 5733 5733 5733 5733 5733 5733 5732
5667 5666 5666 5666 5669 5671 5672 5674 5675 5676 5676 5683 5688 5691 5692 5695 5698 5701 5704 5707 5712 5712 5713 5715 5717 5719 5721 5723 5724 5726 5727 5729 5730 5730 5730 5730 5730 5730
5665 5665 5665 5665 5665 5668 5668 5670 5671 5672 5672 5673 5679 5682 5685 5688 5690 5692 5696 5701 5703 5706 5706 5708 5710 5713 5714 5717 5718 5720 5722 5723 5725 5726 5727 5727 5727 5727
5664 5664 5664 5664 5664 5665 5665 5667 5668 5669 5668 5668 5671 5675 5678 5681 5682 5685 5689 5691 5695 5698 5699 5701 5703 5706 5708 5710 5711 5713 5715 5717 5718 5720 5721 5722 5723 5723
5664 5663 5663 5663 5663 5663 5663 5664 5664 5664 5664 5665 5666 5669 5670 5674 5674 5676 5678 5682 5685 5690 5692 5694 5696 5698 5701 5703 5705 5706 5707 5709 5711 5713 5714 5716 5717 5717
5665 5664 5662 5660 5658 5658 5660 5661 5660 5660 5660 5660 5661 5663 5665 5665 5667 5669 5669 5672 5677 5682 5684 5688 5691 5694 5695 5697 5697 5699 5700 5701 5703 5704 5706 5708 5710 5711
5665 5664 5662 5659 5657 5654 5654 5654 5654 5656 5657 5656 5656 5657 5660 5661 5661 5660 5662 5663 5666 5673 5673 5676 5681 5684 5688 5690 5692 5692 5692 5693 5694 5695 5698 5700 5702 5704
5664 5663 5661 5660 5655 5657 5654 5651 5651 5650 5649 5652 5653 5654 5655 5657 5656 5656 5656 5655 5657 5663 5663 5667 5673 5676 5681 5683 5683 5684 5684 5685 5686 5688 5689 5692 5694 5695
5663 5662 5660 5658 5656 5654 5654 5654 5654 5653 5651 5651 5652 5652 5652 5652 5651 5650 5650 5651 5653 5656 5658 5659 5666 5670 5674 5676 5677 5677 5678 5678 5679 5681 5682 5683 5685 5687
5664 5662 5659 5657 5653 5648 5648 5650 5650 5651 5649 5646 5645 5646 5645 5644 5644 5644 5645 5645 5648 5652 5656 5655 5659 5662 5666 5670 5673 5672 5671 5672 5673 5674 5676 5677 5677 5678
5664 5662 5655 5653 5650 5645 5647 5648 5646 5648 5648 5648 5646 5645 5645 5645 5642 5642 5642 5642 5642 5644 5650 5650 5652 5653 5657 5663 5665 5666 5666 5667 5667 5668 5670 5670 5670 5669
5663 5661 5658 5650 5645 5643 5641 5644 5643 5641 5642 5643 5644 5644 5644 5644 5643 5642 5640 5638 5637 5639 5643 5643 5644 5645 5645 5651 5655 5657 5658 5660 5662 5664 5665 5665 5664 5663
5658 5657 5654 5646 5642 5639 5638 5637 5635 5633 5637 5639 5638 5638 5638 5638 5638 5637 5636 5636 5635 5635 5637 5636 5636 5637 5638 5640 5645 5650 5652 5653 5655 5657 5660 5660 5659 5659
5653 5647 5643 5639 5637 5636 5633 5631 5630 5632 5632 5632 5631 5631 5631 5631 5630 5630 5630 5631 5631 5632 5632 5633 5632 5633 5632 5634 5637 5641 5643 5647 5648 5650 5652 5653 5654 5655
5645 5640 5635 5632 5630 5629 5628 5627 5627 5626 5624 5623 5623 5623 5622 5622 5622 5622 5622 5623 5625 5628 5629 5629 5629 5628 5628 5630 5631 5634 5636 5639 5642 5642 5644 5647 5648 5650
5638 5635 5632 5628 5626 5624 5622 5620 5618 5617 5616 5615 5615 5615 5615 5615 5615 5615 5615 5615 5616 5618 5621 5622 5622 5623 5624 5624 5625 5628 5631 5633 5635 5636 5637 5639 5643 5645
5627 5625 5621 5618 5615 5613 5611 5609 5608 5606 5605 5605 5605 5605 5605 5606 5607 5607 5607 5607 5608 5610 5611 5612 5613 5614 5617 5622 5622 5623 5625 5627 5629 5629 5629 5631 5635 5639
5616 5612 5609 5606 5603 5600 5598 5597 5596 5595 5594 5594 5594 5594 5594 5595 5596 5597 5598 5598 5599 5601 5602 5603 5604 5604 5606 5611 5617 5615 5616 5619 5620 5621 5622 5624 5627 5631
5602 5599 5596 5593 5591 5589 5588 5586 5585 5584 5584 5583 5583 5582 5582 5583 5583 5584 5585 5585 5586 5588 5591 5593 5593 5593 5593 5597 5603 5607 5606 5608 5611 5613 5616 5618 5620 5622
5590 5587 5584 5582 5581 5579 5577 5575 5574 5573 5573 5572 5572 5571 5571 5571 5571 5571 5571 5571 5571 5575 5577 5579 5579 5578 5581 5585 5591 5599 5601 5601 5601 5603 5606 5608 5611 5615
5580 5577 5574 5571 5569 5568 5566 5565 5564 5564 5563 5562 5561 5560 5559 5559 5559 5559 5559 5560 5560 5561 5563 5565 5566 5567 5570 5573 5578 5584 5590 5592 5593 5593 5594 5597 5601 5608
5569 5566 5563 5560 5558 5556 5555 5554 5553 5553 5551 5550 5548 5547 5546 5546 5545 5545 5545 5546 5547 5548 5549 5551 5553 5554 5557 5559 5564 5569 5574 5579 5582 5585 5589 5592 5592 5595